EW8530 Weather Reports


time (UTC)temp
C
wind
direction
speed
KPH
gust
KPH
rain 1hr
cm
rain 24hr
cm
rain mn
cm
humidity
%
barometer
mb
20260509212639 8 101 0.0 6.4 0.00 0.10 0.03 84 1021.1
20260509212141 8 335 1.6 4.8 0.00 0.10 0.03 84 1021.2
20260509211647 8 100 0.0 4.8 0.00 0.10 0.03 84 1021.2
20260509211131 8 83 0.0 4.8 0.00 0.10 0.03 84 1021.2
20260509210632 8 93 1.6 4.8 0.00 0.10 0.03 84 1021.3
20260509210137 8 353 1.6 11.3 0.00 0.10 0.03 84 1021.3
20260509205632 8 328 1.6 11.3 0.00 0.10 0.03 84 1021.3
20260509205134 8 346 0.0 6.4 0.00 0.10 0.03 84 1021.3
20260509204631 8 21 1.6 4.8 0.00 0.10 0.03 83 1021.4
20260509204136 8 85 0.0 6.4 0.00 0.10 0.03 83 1021.4
20260509203638 8 335 1.6 6.4 0.00 0.10 0.03 83 1021.4
20260509203141 8 132 0.0 4.8 0.00 0.10 0.03 83 1021.5
20260509202632 8 349 0.0 6.4 0.00 0.10 0.03 82 1021.6
20260509202137 8 358 0.0 6.4 0.00 0.10 0.03 82 1021.5
20260509201633 8 92 0.0 1.6 0.00 0.10 0.03 81 1021.6
20260509201128 8 120 0.0 1.6 0.00 0.10 0.03 81 1021.6
20260509200633 9 120 0.0 1.6 0.00 0.10 0.03 80 1021.6
20260509200126 9 121 0.0 1.6 0.00 0.10 0.03 80 1021.8
20260509195628 9 103 0.0 1.6 0.00 0.10 0.03 80 1021.8
20260509195139 9 122 0.0 1.6 0.00 0.10 0.03 79 1021.7
20260509194641 10 95 0.0 1.6 0.00 0.10 0.03 78 1021.8
20260509194137 10 95 0.0 4.8 0.00 0.10 0.03 78 1021.8
20260509193638 10 128 0.0 4.8 0.00 0.10 0.03 78 1021.9
20260509193132 10 123 0.0 3.2 0.00 0.10 0.03 77 1021.9
20260509192634 10 45 1.6 3.2 0.00 0.10 0.03 77 1021.9
20260509192143 10 60 0.0 3.2 0.00 0.10 0.03 76 1021.9
20260509191643 10 110 0.0 1.6 0.00 0.10 0.03 76 1022.0
20260509191133 10 112 0.0 1.6 0.00 0.10 0.03 75 1022.0
20260509190629 11 85 0.0 6.4 0.00 0.10 0.03 74 1022.0
20260509190134 11 61 0.0 6.4 0.00 0.10 0.03 73 1021.9
20260509185643 11 35 1.6 4.8 0.00 0.10 0.03 73 1022.0
20260509185130 11 105 0.0 4.8 0.00 0.10 0.03 73 1021.9
20260509184645 11 77 0.0 4.8 0.00 0.10 0.03 72 1021.8
20260509184131 11 37 1.6 4.8 0.00 0.10 0.03 72 1021.8
20260509183636 11 109 0.0 6.4 0.00 0.10 0.03 71 1021.8
20260509183131 11 44 1.6 9.7 0.00 0.10 0.03 71 1021.9
20260509182636 12 9 1.6 9.7 0.00 0.10 0.03 71 1021.9
20260509182133 12 146 3.2 8.0 0.00 0.10 0.03 70 1021.9
20260509181631 12 353 3.2 11.3 0.00 0.10 0.03 69 1021.8
20260509181133 12 343 1.6 11.3 0.00 0.10 0.03 69 1021.9
20260509180633 12 33 3.2 14.5 0.00 0.10 0.03 68 1021.9
20260509180133 12 339 4.8 14.5 0.00 0.10 0.03 68 1022.0
20260509175635 12 14 4.8 14.5 0.00 0.10 0.03 67 1021.9
20260509175141 12 350 3.2 11.3 0.00 0.10 0.03 68 1021.9
20260509174644 12 4 3.2 8.0 0.00 0.10 0.03 68 1021.8
20260509174127 12 353 1.6 12.9 0.00 0.10 0.03 68 1021.7
20260509173642 12 13 3.2 12.9 0.00 0.10 0.03 68 1021.8
20260509173142 12 342 1.6 9.7 0.00 0.10 0.03 68 1021.7
20260509172641 12 325 4.8 11.3 0.00 0.10 0.03 67 1021.8
20260509172141 12 253 4.8 11.3 0.00 0.10 0.03 68 1021.8
20260509171642 12 355 3.2 11.3 0.00 0.10 0.03 68 1021.8
20260509171128 12 343 3.2 11.3 0.00 0.10 0.03 68 1021.8
20260509170645 12 352 1.6 8.0 0.00 0.10 0.03 68 1021.8
20260509170128 12 44 1.6 8.0 0.00 0.10 0.03 68 1021.7
20260509165627 12 316 0.0 4.8 0.00 0.10 0.03 68 1021.7
20260509165148 12 350 0.0 4.8 0.00 0.10 0.03 68 1021.6
20260509164707 12 105 0.0 1.6 0.00 0.10 0.03 68 1021.5
20260509164128 12 127 0.0 3.2 0.00 0.10 0.03 69 1021.5
20260509163627 12 350 0.0 3.2 0.00 0.10 0.03 69 1021.4
20260509163135 12 124 0.0 3.2 0.00 0.10 0.03 70 1021.4
20260509162637 12 135 0.0 1.6 0.00 0.10 0.03 71 1021.4
20260509162138 11 168 0.0 1.6 0.00 0.10 0.03 72 1021.3
20260509161641 11 168 0.0 3.2 0.00 0.10 0.03 72 1021.3
20260509161142 11 168 0.0 0.0 0.00 0.10 0.03 74 1021.3
20260509160626 12 227 0.0 0.0 0.00 0.10 0.03 72 1021.2
20260509160142 12 227 0.0 0.0 0.00 0.10 0.03 70 1021.1
20260509155640 12 227 0.0 0.0 0.00 0.10 0.03 69 1021.1
20260509155130 13 227 0.0 0.0 0.00 0.10 0.03 67 1021.1
20260509154634 13 227 0.0 0.0 0.00 0.10 0.03 66 1021.0
20260509154130 14 227 0.0 0.0 0.00 0.10 0.03 64 1020.9
20260509153626 14 227 0.0 0.0 0.00 0.10 0.03 63 1020.9
20260509153128 15 227 0.0 0.0 0.00 0.10 0.03 62 1020.9
20260509152637 15 227 0.0 0.0 0.00 0.10 0.03 61 1020.9
20260509152141 15 227 0.0 0.0 0.00 0.10 0.03 61 1020.9
20260509151637 16 227 0.0 0.0 0.00 0.10 0.03 58 1020.9
20260509151133 16 227 0.0 4.8 0.00 0.10 0.03 57 1020.9
20260509150634 17 227 0.0 4.8 0.00 0.10 0.03 55 1020.9
20260509150131 17 258 1.6 6.4 0.00 0.10 0.03 54 1020.9
20260509145633 17 289 1.6 8.0 0.00 0.10 0.03 53 1020.9
20260509145136 17 277 1.6 9.7 0.00 0.10 0.03 52 1020.8
20260509144640 17 277 1.6 9.7 0.00 0.10 0.03 52 1020.9
20260509144131 17 256 1.6 9.7 0.00 0.10 0.03 52 1020.8
20260509143656 17 232 3.2 11.3 0.00 0.10 0.03 51 1020.7
20260509143135 17 280 6.4 12.9 0.00 0.10 0.03 50 1020.8
20260509142627 18 269 6.4 22.5 0.00 0.10 0.03 49 1020.7
20260509142128 18 293 9.7 22.5 0.00 0.10 0.03 48 1020.7
20260509141632 18 293 8.0 17.7 0.00 0.10 0.03 49 1020.5
20260509141134 18 282 9.7 17.7 0.00 0.10 0.03 48 1020.5
20260509140633 18 256 8.0 22.5 0.00 0.10 0.03 48 1020.6
20260509140132 18 280 6.4 22.5 0.00 0.10 0.03 47 1020.7
20260509135632 18 272 11.3 20.9 0.00 0.10 0.03 47 1020.6
20260509135153 18 290 8.0 22.5 0.00 0.10 0.03 47 1020.5
20260509134642 18 304 8.0 22.5 0.00 0.10 0.03 47 1020.6
20260509134140 18 284 12.9 22.5 0.00 0.10 0.03 47 1020.6
20260509133634 18 282 8.0 22.5 0.00 0.10 0.03 48 1020.7
20260509133133 18 296 8.0 25.7 0.00 0.10 0.03 47 1020.8
20260509132632 18 296 16.1 24.1 0.00 0.10 0.03 47 1020.7
20260509132137 18 299 12.9 25.7 0.00 0.10 0.03 47 1020.7
20260509131701 18 353 16.1 25.7 0.00 0.10 0.03 46 1020.7
20260509131143 18 284 4.8 19.3 0.00 0.10 0.03 48 1020.7
20260509130643 18 6 11.3 19.3 0.00 0.10 0.03 47 1020.7
20260509130131 18 30 6.4 17.7 0.00 0.10 0.03 47 1020.8
20260509125632 18 279 8.0 17.7 0.00 0.10 0.03 48 1020.8
20260509125132 18 258 8.0 17.7 0.00 0.10 0.03 47 1020.7
20260509124635 18 269 8.0 22.5 0.00 0.10 0.03 47 1020.8
20260509124142 18 296 11.3 22.5 0.00 0.10 0.03 47 1020.9
20260509123642 18 322 9.7 22.5 0.00 0.10 0.03 48 1020.8
20260509123146 18 270 11.3 20.9 0.00 0.10 0.03 46 1020.8
20260509122641 18 306 8.0 24.1 0.00 0.10 0.03 47 1020.8
20260509122135 18 324 11.3 24.1 0.00 0.10 0.03 47 1020.8
20260509121631 18 317 6.4 17.7 0.00 0.10 0.03 48 1020.9
20260509121132 18 287 8.0 17.7 0.00 0.10 0.03 47 1020.9
20260509120635 18 165 4.8 19.3 0.00 0.10 0.03 48 1020.9
20260509120135 18 308 9.7 20.9 0.00 0.10 0.03 47 1020.9
20260509115637 18 347 8.0 25.7 0.00 0.10 0.03 48 1020.9
20260509115137 18 272 6.4 25.7 0.00 0.10 0.03 48 1020.8
20260509114631 18 314 6.4 20.9 0.00 0.10 0.03 47 1020.9
20260509114132 18 249 11.3 19.3 0.00 0.10 0.03 47 1021.2
20260509113631 18 303 6.4 19.3 0.00 0.10 0.03 48 1021.1
20260509113133 18 275 3.2 20.9 0.00 0.10 0.03 48 1021.1
20260509112632 18 282 11.3 22.5 0.00 0.10 0.03 48 1021.3
20260509112157 18 277 11.3 22.5 0.00 0.10 0.03 48 1021.3
20260509111640 18 293 8.0 29.0 0.00 0.10 0.03 50 1021.3
20260509111138 18 294 9.7 29.0 0.00 0.10 0.03 49 1021.5
20260509110637 18 32 9.7 25.7 0.00 0.10 0.03 50 1021.5
20260509110201 18 311 9.7 25.7 0.00 0.10 0.03 50 1021.6
20260509105627 18 348 3.2 20.9 0.00 0.10 0.03 49 1021.7
20260509105158 18 293 9.7 27.4 0.00 0.10 0.03 48 1021.8
20260509104628 18 296 12.9 27.4 0.00 0.10 0.03 49 1021.8
20260509104133 18 307 9.7 20.9 0.00 0.10 0.03 50 1022.0
20260509103655 18 263 9.7 17.7 0.00 0.10 0.03 48 1022.0
20260509103144 18 331 6.4 20.9 0.00 0.10 0.03 49 1022.1
20260509102644 18 272 11.3 20.9 0.00 0.10 0.03 49 1022.2
20260509102133 17 262 9.7 25.7 0.00 0.10 0.03 49 1022.2
20260509101635 17 324 9.7 25.7 0.00 0.10 0.03 49 1022.3
20260509101126 17 317 11.3 25.7 0.00 0.10 0.03 49 1022.5
20260509100629 17 286 14.5 25.7 0.00 0.10 0.03 49 1022.5
20260509100205 17 258 11.3 27.4 0.00 0.10 0.03 49 1022.6
20260509095626 17 359 16.1 27.4 0.00 0.10 0.03 48 1022.7
20260509095127 17 312 6.4 25.7 0.00 0.10 0.03 51 1022.8
20260509094630 17 277 14.5 25.7 0.00 0.10 0.03 50 1022.8
20260509094151 17 47 12.9 27.4 0.00 0.10 0.03 51 1022.8
20260509093627 17 294 14.5 22.5 0.00 0.10 0.03 52 1022.9
20260509093132 17 275 8.0 22.5 0.00 0.10 0.03 55 1023.0
20260509092636 17 291 8.0 22.5 0.00 0.10 0.03 54 1022.9
20260509092137 16 293 11.3 24.1 0.00 0.10 0.03 53 1022.9
20260509091637 16 227 11.3 24.1 0.00 0.10 0.03 54 1023.1
20260509091133 16 269 14.5 24.1 0.00 0.10 0.03 52 1023.1
20260509090626 16 300 9.7 29.0 0.00 0.10 0.03 56 1023.2
20260509085633 16 262 11.3 24.1 0.00 0.10 0.03 55 1023.4
20260509085131 16 313 9.7 20.9 0.00 0.10 0.03 56 1023.6
20260509084654 16 339 8.0 17.7 0.00 0.10 0.03 56 1023.6
20260509084150 16 324 6.4 19.3 0.00 0.10 0.03 56 1023.6
20260509083652 16 258 12.9 19.3 0.00 0.10 0.03 54 1023.6
20260509083142 16 313 8.0 20.9 0.00 0.10 0.03 57 1023.7
20260509082643 16 277 8.0 19.3 0.00 0.10 0.03 57 1023.8
20260509082145 16 305 4.8 19.3 0.00 0.10 0.03 57 1023.8
20260509081628 15 301 4.8 22.5 0.00 0.10 0.03 58 1023.9
20260509081138 15 305 11.3 22.5 0.00 0.10 0.03 57 1023.9
20260509080641 15 28 11.3 22.5 0.00 0.10 0.03 57 1024.0
20260509080127 15 336 8.0 17.7 0.00 0.10 0.03 58 1024.0
20260509075645 15 272 6.4 17.7 0.00 0.10 0.03 59 1024.1
20260509074635 15 26 6.4 22.5 0.10 0.10 0.03 61 1024.1
20260509074131 14 6 6.4 22.5 0.10 0.10 0.03 63 1024.0
20260509073635 14 10 8.0 20.9 0.10 0.10 0.03 63 1024.0
20260509073156 14 293 6.4 20.9 0.10 0.10 0.03 63 1023.9
20260509072650 14 286 6.4 17.7 0.10 0.10 0.03 63 1023.9
20260509072131 13 277 6.4 17.7 0.10 0.10 0.03 65 1023.9
20260509071633 13 303 3.2 17.7 0.10 0.10 0.03 67 1023.9
20260509071148 13 28 6.4 17.7 0.10 0.10 0.03 67 1023.9
20260509070705 13 35 1.6 12.9 0.10 0.10 0.03 69 1023.9
20260509070140 12 339 3.2 12.9 0.10 0.10 0.03 69 1023.9
20260509065632 12 130 6.4 16.1 0.10 0.10 0.03 69 1023.8
20260509065131 12 324 8.0 19.3 0.10 0.10 0.03 70 1023.7
20260509064645 12 342 4.8 19.3 0.00 0.00 0.00 72 1023.7
20260509064205 11 45 1.6 12.9 0.00 0.00 0.00 74 1023.7
20260509063707 11 7 3.2 12.9 0.00 0.00 0.00 74 1023.7
20260509063131 11 153 1.6 16.1 0.00 0.00 0.00 75 1023.6
20260509062633 10 140 4.8 16.1 0.00 0.00 0.00 75 1023.5
20260509062140 10 8 1.6 8.0 0.00 0.00 0.00 77 1023.5
20260509061641 10 120 1.6 6.4 0.00 0.00 0.00 79 1023.4
20260509061131 9 353 1.6 9.7 0.00 0.00 0.00 81 1023.4
20260509060702 8 347 1.6 11.3 0.00 0.00 0.00 81 1023.4
20260509060133 8 266 1.6 11.3 0.00 0.00 0.00 81 1023.3
20260509055650 8 320 3.2 11.3 0.00 0.00 0.00 82 1023.2
20260509055152 7 211 4.8 11.3 0.00 0.00 0.00 84 1023.2
20260509054632 7 234 3.2 9.7 0.00 0.00 0.00 86 1023.2
20260509054132 7 358 0.0 6.4 0.00 0.00 0.00 88 1023.2
20260509053635 6 42 1.6 6.4 0.00 0.00 0.00 90 1023.3
20260509053137 6 163 0.0 4.8 0.00 0.00 0.00 92 1023.3
20260509052634 6 173 0.0 0.0 0.00 0.00 0.00 92 1023.3
20260509052136 5 173 0.0 0.0 0.00 0.00 0.00 93 1023.3
20260509051637 5 173 0.0 0.0 0.00 0.00 0.00 94 1023.2
20260509051154 4 173 0.0 0.0 0.00 0.00 0.00 95 1023.1
20260509050636 3 174 0.0 0.0 0.00 0.00 0.00 96 1023.1
20260509050142 3 173 0.0 0.0 0.00 0.00 0.00 97 1023.0
20260509045631 2 173 0.0 0.0 0.00 0.00 0.00 96 1023.0
20260509045135 2 173 0.0 0.0 0.00 0.00 0.00 96 1023.0
20260509044635 2 173 0.0 0.0 0.00 0.00 0.00 96 1023.0
20260509044140 2 173 0.0 0.0 0.00 0.00 0.00 96 1023.0
20260509043640 2 173 0.0 0.0 0.00 0.00 0.00 96 1023.0
20260509043144 1 173 0.0 0.0 0.00 0.00 0.00 96 1023.0
20260509042707 1 174 0.0 0.0 0.00 0.00 0.00 96 1023.0
20260509042143 1 173 0.0 0.0 0.00 0.00 0.00 96 1023.0
20260509041638 2 173 0.0 0.0 0.00 0.00 0.00 96 1022.9
20260509041134 2 173 0.0 0.0 0.00 0.00 0.00 96 1022.8
20260509040634 2 173 0.0 0.0 0.00 0.00 0.00 96 1022.8
20260509040159 2 173 0.0 0.0 0.00 0.00 0.00 96 1022.8
20260509035630 2 173 0.0 0.0 0.00 0.00 0.00 96 1022.8
20260509035145 1 173 0.0 0.0 0.00 0.00 0.00 96 1022.8
20260509034626 1 173 0.0 0.0 0.00 0.00 0.00 96 1022.9
20260509034129 1 173 0.0 0.0 0.00 0.00 0.00 96 1022.8
20260509033638 1 174 0.0 0.0 0.00 0.00 0.00 96 1022.9
20260509033140 1 174 0.0 0.0 0.00 0.00 0.00 96 1022.8
20260509032638 2 173 0.0 0.0 0.00 0.00 0.00 96 1023.0
20260509032134 2 174 0.0 0.0 0.00 0.00 0.00 96 1023.0
20260509031635 2 174 0.0 0.0 0.00 0.00 0.00 96 1022.8
20260509031149 2 174 0.0 0.0 0.00 0.00 0.00 96 1022.7
20260509030628 2 173 0.0 0.0 0.00 0.00 0.00 96 1022.7
20260509030149 2 173 0.0 0.0 0.00 0.00 0.00 96 1022.7
20260509025628 2 174 0.0 0.0 0.00 0.00 0.00 96 1022.7
20260509025127 2 174 0.0 0.0 0.00 0.00 0.00 96 1022.6
20260509024638 2 174 0.0 0.0 0.00 0.00 0.00 96 1022.6
20260509024127 2 173 0.0 0.0 0.00 0.00 0.00 96 1022.5
20260509023634 1 173 0.0 0.0 0.00 0.00 0.00 96 1022.5
20260509023127 1 173 0.0 0.0 0.00 0.00 0.00 96 1022.5
20260509022638 1 174 0.0 0.0 0.00 0.00 0.00 96 1022.3
20260509022125 1 173 0.0 0.0 0.00 0.00 0.00 96 1022.4
20260509021643 1 173 0.0 0.0 0.00 0.00 0.00 96 1022.4
20260509021144 1 173 0.0 0.0 0.00 0.00 0.00 96 1022.4
20260509020633 1 173 0.0 0.0 0.00 0.00 0.00 96 1022.4
20260509020132 1 173 0.0 0.0 0.00 0.00 0.00 96 1022.5
20260509015127 1 173 0.0 0.0 0.00 0.00 0.00 96 1022.4
20260509014630 2 173 0.0 0.0 0.00 0.00 0.00 96 1022.4
20260509014141 2 173 0.0 0.0 0.00 0.00 0.00 96 1022.3
20260509013633 2 174 0.0 0.0 0.00 0.00 0.00 96 1022.3
20260509013215 2 174 0.0 0.0 0.00 0.00 0.00 96 1022.4
20260509012636 2 173 0.0 0.0 0.00 0.00 0.00 96 1022.4
20260509012144 2 173 0.0 0.0 0.00 0.00 0.00 96 1022.3
20260509011637 2 173 0.0 0.0 0.00 0.00 0.00 96 1022.3
20260509011146 2 173 0.0 0.0 0.00 0.00 0.00 96 1022.4
20260509010650 2 174 0.0 0.0 0.00 0.00 0.00 96 1022.4
20260509010131 2 173 0.0 0.0 0.00 0.00 0.00 96 1022.4
20260509005631 2 173 0.0 0.0 0.00 0.00 0.00 96 1022.4
20260509005129 2 173 0.0 0.0 0.00 0.00 0.00 96 1022.5
20260509004630 2 174 0.0 0.0 0.00 0.00 0.00 96 1022.6
20260509004133 2 173 0.0 0.0 0.00 0.00 0.00 96 1022.5
20260509003148 2 173 0.0 0.0 0.00 0.00 0.00 96 1022.6
20260509002643 2 173 0.0 0.0 0.00 0.00 0.00 96 1022.6
20260509002151 2 174 0.0 0.0 0.00 0.00 0.00 96 1022.6
20260509001659 2 174 0.0 0.0 0.00 0.00 0.00 96 1022.7
20260509001133 2 173 0.0 0.0 0.00 0.00 0.00 95 1022.7
20260509000652 2 173 0.0 0.0 0.00 0.00 0.00 95 1022.7
20260509000146 2 173 0.0 0.0 0.00 0.00 0.00 95 1022.7
20260508235633 2 173 0.0 0.0 0.00 0.00 0.00 95 1022.7
20260508235134 2 173 0.0 0.0 0.00 0.00 0.00 95 1022.7
20260508234654 2 173 0.0 0.0 0.00 0.00 0.00 95 1022.6
20260508234136 2 173 0.0 0.0 0.00 0.00 0.00 95 1022.6
20260508233637 2 173 0.0 0.0 0.00 0.00 0.00 95 1022.7
20260508233143 2 173 0.0 0.0 0.00 0.00 0.00 95 1022.7
20260508232659 2 173 0.0 0.0 0.00 0.00 0.00 95 1022.7
20260508232143 2 173 0.0 0.0 0.00 0.00 0.00 95 1022.7
20260508231638 2 173 0.0 0.0 0.00 0.00 0.00 95 1022.6
20260508231140 2 173 0.0 0.0 0.00 0.00 0.00 95 1022.7
20260508230637 3 173 0.0 0.0 0.00 0.00 0.00 95 1022.7
20260508230135 3 173 0.0 0.0 0.00 0.00 0.00 95 1022.6
20260508225637 3 173 0.0 0.0 0.00 0.00 0.00 95 1022.5
20260508225134 3 173 0.0 0.0 0.00 0.00 0.00 94 1022.5
20260508224637 3 173 0.0 0.0 0.00 0.00 0.00 94 1022.6
20260508224159 3 173 0.0 0.0 0.00 0.00 0.00 94 1022.5
20260508223656 3 174 0.0 0.0 0.00 0.00 0.00 94 1022.6
20260508223136 3 173 0.0 0.0 0.00 0.00 0.00 94 1022.6
20260508222631 3 174 0.0 0.0 0.00 0.00 0.00 94 1022.6
20260508222134 3 173 0.0 0.0 0.00 0.00 0.00 94 1022.7
20260508221634 3 174 0.0 0.0 0.00 0.00 0.00 94 1022.6
20260508221137 3 173 0.0 0.0 0.00 0.00 0.00 94 1022.7
20260508220634 3 173 0.0 0.0 0.00 0.00 0.00 93 1022.6
20260508220148 3 174 0.0 0.0 0.00 0.00 0.00 93 1022.7
20260508215703 3 173 0.0 0.0 0.00 0.00 0.00 93 1022.7
20260508215128 3 173 0.0 0.0 0.00 0.00 0.00 93 1022.7
20260508214638 3 173 0.0 0.0 0.00 0.00 0.00 93 1022.8
20260508214138 3 173 0.0 0.0 0.00 0.00 0.00 93 1022.9
20260508213638 3 173 0.0 0.0 0.00 0.00 0.00 93 1022.9
20260508213139 3 173 0.0 0.0 0.00 0.00 0.00 93 1023.0